This is the latest recevied weather packets stored in our database for station/object S50ME-11. If no packets are shown the sender has not sent any weather packets the latest 10 day(s).
| Time | Temp. | Humidity | Pressure | Rain* | Wind** | Luminosity | Snow |
|---|---|---|---|---|---|---|---|
| 1777101329 | 21.67° C | 40% | 1019.5 hPa | - | - | - | - |
| 1777101326 | 21.67° C | 40% | 1019.5 hPa | - | - | - | - |
| 1777100428 | 20° C | 40% | 1019.1 hPa | - | - | - | - |
| 1777100425 | 20° C | 40% | 1019.1 hPa | - | - | - | - |
| 1777099525 | 17.78° C | 41% | 1019.6 hPa | - | - | - | - |
| 1777098667 | 16.11° C | 42% | 1019.8 hPa | - | - | - | - |
| 1777098628 | 16.11° C | 42% | 1019.8 hPa | - | - | - | - |
| 1777098624 | 16.11° C | 42% | 1019.8 hPa | - | - | - | - |
| 1777097729 | 14.44° C | 42% | 1019.4 hPa | - | - | - | - |
| 1777097723 | 14.44° C | 42% | 1019.4 hPa | - | - | - | - |
| 1777096836 | 13.33° C | 42% | 1019.4 hPa | - | - | - | - |
| 1777096833 | 13.33° C | 42% | 1019.4 hPa | - | - | - | - |
| 1777095936 | 12.78° C | 42% | 1019.2 hPa | - | - | - | - |
| 1777095932 | 12.78° C | 42% | 1019.2 hPa | - | - | - | - |
| 1777095036 | 12.22° C | 43% | 1019.5 hPa | - | - | - | - |
| 1777095032 | 12.22° C | 43% | 1019.5 hPa | - | - | - | - |
| 1777094135 | 12.22° C | 43% | 1019.5 hPa | - | - | - | - |
| 1777094132 | 12.22° C | 43% | 1019.5 hPa | - | - | - | - |
| 1777093235 | 11.11° C | 43% | 1017.7 hPa | - | - | - | - |
| 1777093232 | 11.11° C | 43% | 1017.7 hPa | - | - | - | - |
| 1777092335 | 10.56° C | 43% | 1018.2 hPa | - | - | - | - |
| 1777092331 | 10.56° C | 43% | 1018.2 hPa | - | - | - | - |
| 1777091434 | 10° C | 43% | 1018.2 hPa | - | - | - | - |
| 1777091431 | 10° C | 43% | 1018.2 hPa | - | - | - | - |
* Rain since midnight (hover to see other rain measurements)
** Current wind speed in m/s (hover to see current wind gust speed)